Hayward, CA

9:39 AM PST on December 15, 2017 (GMT -0800)
Hayward Executive

Weather History for KHWD - August, 2013

Change the Weather History Date:

Friday, August 2, 2013

  Actual Average Record
Temperature  
Mean Temperature 62 °F 66 °F  
Max Temperature 70 °F 74 °F 92 °F (2017)
Min Temperature 54 °F 58 °F 54 °F (2012)
Degree Days  
Heating Degree Days 3    
Month to date heating degree days 6  
Since 1 June heating degree days 73  
Since 1 July heating degree days 26  
Cooling Degree Days 0    
Month to date cooling degree days 0  
Year to date cooling degree days 152  
Since 1 June cooling degree days 105  
Growing Degree Days 11 (Base 50)    
Moisture  
Dew Point 54 °F    
Average Humidity 75    
Maximum Humidity 93    
Minimum Humidity 57    
Precipitation  
Precipitation 0.00 in - 0.02 in (2002)
Month to date precipitation 0.00  
Year to date precipitation 1.49  
Since 1 July precipitation 0.00  
Sea Level Pressure  
Sea Level Pressure 29.98 in    
Wind  
Wind Speed 8 mph (WNW)    
Max Wind Speed 16 mph    
Max Gust Speed 21 mph    
Visibility 10 miles    
Events      
T = Trace of Precipitation, MM = Missing Value Source: NWS Daily Summary

Daily Weather History Graph

Daily Weather History Graph

Search for Another Location

Airport or City:

Trip Planner

Search our weather history database for the weather conditions in past years. The results will help you decide how hot, cold, wet, or windy it might be!

Date:

Astronomy

Aug. 02, 2013 Rise Set
Actual Time 6:13 AM PDT 8:15 PM PDT
Civil Twilight 5:44 AM PDT 8:44 PM PDT
Nautical Twilight 5:09 AM PDT 9:19 PM PDT
Astronomical Twilight 4:31 AM PDT 9:57 PM PDT
Moon 2:39 AM PDT (8/2) 5:16 PM PDT (8/2)
Length of Visible Light 14h 59m
Length of Day
14h 02m
Waning Crescent, 15% of the Moon is Illuminated
Aug 2
Waning Crescent
Aug 6
New
Aug 14
First Quarter
Aug 20
Full
Aug 28
Last Quarter

Hourly Weather History & Observations

Time (PDT) Temp. Dew Point Humidity Pressure Visibility Wind Dir Wind Speed Gust Speed Precip Events Conditions
12:54 AM 57.0 °F 55.0 °F 93% 30.00 in 10.0 mi Calm Calm - N/A   Scattered Clouds
1:03 AM 57.2 °F 53.6 °F 88% 29.97 in 10.0 mi Calm Calm - N/A   Mostly Cloudy
1:36 AM 57.2 °F 53.6 °F 88% 29.96 in 10.0 mi Calm Calm - N/A   Scattered Clouds
1:54 AM 57.0 °F 54.0 °F 89% 29.99 in 10.0 mi Calm Calm - N/A   Clear
2:54 AM 55.0 °F 52.0 °F 89% 29.98 in 10.0 mi ENE 3.5 mph - N/A   Clear
3:17 AM 55.4 °F 53.6 °F 94% 29.95 in 10.0 mi Calm Calm - N/A   Mostly Cloudy
3:54 AM 55.9 °F 53.1 °F 90% 29.98 in 10.0 mi West 8.1 mph - N/A   Overcast
4:14 AM 55.4 °F 53.6 °F 94% 29.95 in 10.0 mi WSW 8.1 mph - N/A   Scattered Clouds
4:52 AM 55.4 °F 53.6 °F 94% 29.96 in 10.0 mi West 8.1 mph - N/A   Mostly Cloudy
4:54 AM 55.0 °F 53.1 °F 93% 29.99 in 10.0 mi West 8.1 mph - N/A   Mostly Cloudy
5:28 AM 53.6 °F 53.6 °F 100% 29.96 in 10.0 mi WNW 5.8 mph - N/A   Scattered Clouds
5:36 AM 53.6 °F 53.6 °F 100% 29.96 in 10.0 mi WNW 5.8 mph - N/A   Mostly Cloudy
5:54 AM 55.0 °F 54.0 °F 96% 30.00 in 10.0 mi NW 3.5 mph - N/A   Overcast
6:54 AM 55.0 °F 54.0 °F 96% 30.01 in 10.0 mi WNW 6.9 mph - N/A   Overcast
7:21 AM 55.4 °F 53.6 °F 94% 29.98 in 10.0 mi WNW 8.1 mph - N/A   Overcast
7:54 AM 55.0 °F 53.1 °F 93% 30.02 in 10.0 mi WNW 5.8 mph - N/A   Overcast
8:14 AM 55.4 °F 53.6 °F 94% 29.99 in 10.0 mi WNW 6.9 mph - N/A   Overcast
8:54 AM 57.0 °F 53.1 °F 87% 30.03 in 10.0 mi NW 5.8 mph - N/A   Mostly Cloudy
9:51 AM 57.2 °F 53.6 °F 88% 29.99 in 10.0 mi West 5.8 mph - N/A   Partly Cloudy
9:54 AM 59.0 °F 53.1 °F 81% 30.02 in 10.0 mi NW 6.9 mph - N/A   Partly Cloudy
10:54 AM 62.1 °F 54.0 °F 75% 30.02 in 10.0 mi Variable 3.5 mph - N/A   Clear
11:54 AM 64.0 °F 54.0 °F 70% 30.01 in 10.0 mi West 6.9 mph - N/A   Clear
12:54 PM 68.0 °F 53.1 °F 59% 29.99 in 10.0 mi WNW 6.9 mph - N/A   Clear
1:54 PM 69.1 °F 54.0 °F 58% 29.98 in 10.0 mi WNW 10.4 mph - N/A   Clear
2:54 PM 68.0 °F 54.0 °F 61% 29.97 in 10.0 mi NW 11.5 mph - N/A   Clear
3:54 PM 68.0 °F 54.0 °F 61% 29.96 in 10.0 mi WNW 15.0 mph - N/A   Clear
4:54 PM 64.9 °F 55.0 °F 70% 29.97 in 10.0 mi WNW 12.7 mph - N/A   Clear
5:54 PM 64.0 °F 55.0 °F 73% 29.97 in 10.0 mi WNW 12.7 mph - N/A   Clear
6:54 PM 61.0 °F 54.0 °F 78% 29.96 in 10.0 mi West 11.5 mph - N/A   Clear
7:54 PM 57.9 °F 54.0 °F 87% 29.96 in 10.0 mi West 11.5 mph - N/A   Clear
8:54 PM 57.0 °F 54.0 °F 89% 29.97 in 10.0 mi WNW 8.1 mph - N/A   Partly Cloudy
9:54 PM 55.9 °F 54.0 °F 93% 29.99 in 10.0 mi West 8.1 mph - N/A   Scattered Clouds
10:54 PM 55.9 °F 54.0 °F 93% 29.99 in 10.0 mi WNW 8.1 mph - N/A   Partly Cloudy
11:41 PM 55.4 °F 53.6 °F 94% 29.96 in 10.0 mi WNW 6.9 mph - N/A   Mostly Cloudy
11:54 PM 55.9 °F 54.0 °F 93% 29.99 in 10.0 mi WNW 5.8 mph - N/A   Overcast